Location: Sungai Lasa
(2.4500°N, 113.4500°E)
Time: 03:29:12
(UTC+00:00)

DELTA 2 R/B (1) - Pass Details

Date: 03 February 2023
Orbit: 789 x 803 km, 39.6° (Epoch: 26 March)

Event Time Altitude Azimuth Distance (km) Brightness Sun altitude
Rises 12:40:40 0° 232° (SW) 3,271 7.8 -29.6°
Reaches altitude 10° 12:43:09 10° 233° (SW) 2,342 6.8 -30.2°
Enters shadow 12:47:35 57° 254° (WSW) 924 4.1 -31.2°
